| time (UTC) | temp F | wind direction | speed MPH | gust MPH | rain 1hr in | rain 24hr in | rain mn in | humidity % | barometer mb |
| 20260831220503 | 81 | 193 | 2.0 | 3.0 | 0.00 | 0.00 | 0.00 | 66 | 1012.1 |
| 20260831220002 | 81 | 328 | 0.0 | 2.0 | 0.00 | 0.00 | 0.00 | 66 | 1012.2 |
| 20260831215503 | 81 | 327 | 0.0 | 3.0 | 0.00 | 0.00 | 0.00 | 66 | 1012.2 |
| 20260831215002 | 81 | 232 | 0.0 | 3.0 | 0.00 | 0.00 | 0.00 | 66 | 1012.2 |
| 20260831214503 | 81 | 229 | 2.0 | 5.0 | 0.00 | 0.00 | 0.00 | 65 | 1012.1 |
| 20260831214002 | 81 | 229 | 1.0 | 5.0 | 0.00 | 0.00 | 0.00 | 65 | 1012.1 |
| 20260831213503 | 81 | 246 | 0.0 | 4.0 | 0.00 | 0.00 | 0.00 | 63 | 1012.2 |
| 20260831213002 | 81 | 246 | 1.0 | 4.0 | 0.00 | 0.00 | 0.00 | 65 | 1012.1 |
| 20260831212503 | 82 | 247 | 0.0 | 4.0 | 0.00 | 0.00 | 0.00 | 64 | 1012.2 |
| 20260831212003 | 82 | 240 | 0.0 | 7.0 | 0.00 | 0.00 | 0.00 | 63 | 1012.3 |
| 20260831211503 | 81 | 227 | 2.0 | 7.0 | 0.00 | 0.00 | 0.00 | 63 | 1012.4 |
| 20260831211003 | 81 | 222 | 2.0 | 6.0 | 0.00 | 0.00 | 0.00 | 65 | 1012.4 |
| 20260831210503 | 81 | 226 | 1.0 | 4.0 | 0.00 | 0.00 | 0.00 | 67 | 1012.4 |
| 20260831210002 | 81 | 219 | 2.0 | 6.0 | 0.00 | 0.00 | 0.00 | 66 | 1012.4 |
| 20260831205503 | 80 | 300 | 2.0 | 6.0 | 0.00 | 0.00 | 0.00 | 67 | 1012.5 |
| 20260831205003 | 80 | 1 | 0.0 | 3.0 | 0.00 | 0.00 | 0.00 | 67 | 1012.5 |
| 20260831204503 | 80 | 233 | 1.0 | 3.0 | 0.00 | 0.00 | 0.00 | 66 | 1012.7 |
| 20260831204003 | 80 | 221 | 0.0 | 3.0 | 0.00 | 0.00 | 0.00 | 66 | 1012.6 |
| 20260831203502 | 80 | 190 | 0.0 | 3.0 | 0.00 | 0.00 | 0.00 | 64 | 1012.5 |
| 20260831203003 | 80 | 251 | 0.0 | 4.0 | 0.00 | 0.00 | 0.00 | 64 | 1012.6 |
| 20260831202502 | 80 | 255 | 2.0 | 4.0 | 0.00 | 0.00 | 0.00 | 65 | 1012.6 |
| 20260831202003 | 80 | 335 | 1.0 | 4.0 | 0.00 | 0.00 | 0.00 | 64 | 1012.5 |
| 20260831201503 | 80 | 330 | 1.0 | 5.0 | 0.00 | 0.00 | 0.00 | 65 | 1012.4 |
| 20260831201003 | 80 | 334 | 0.0 | 5.0 | 0.00 | 0.00 | 0.00 | 65 | 1012.4 |
| 20260831200502 | 80 | 313 | 1.0 | 3.0 | 0.00 | 0.00 | 0.00 | 64 | 1012.5 |
| 20260831200003 | 80 | 5 | 1.0 | 3.0 | 0.00 | 0.00 | 0.00 | 63 | 1012.5 |
| 20260831195503 | 80 | 315 | 1.0 | 3.0 | 0.00 | 0.00 | 0.00 | 65 | 1012.4 |
| 20260831195003 | 80 | 183 | 2.0 | 3.0 | 0.00 | 0.00 | 0.00 | 66 | 1012.3 |
| 20260831194503 | 80 | 221 | 1.0 | 3.0 | 0.00 | 0.00 | 0.00 | 65 | 1012.3 |
| 20260831194003 | 80 | 5 | 1.0 | 3.0 | 0.00 | 0.00 | 0.00 | 65 | 1012.3 |
| 20260831193503 | 80 | 335 | 1.0 | 5.0 | 0.00 | 0.00 | 0.00 | 66 | 1012.3 |
| 20260831193003 | 80 | 252 | 1.0 | 5.0 | 0.00 | 0.00 | 0.00 | 65 | 1012.5 |
| 20260831192503 | 80 | 266 | 1.0 | 4.0 | 0.00 | 0.00 | 0.00 | 63 | 1012.5 |
| 20260831192002 | 80 | 237 | 2.0 | 4.0 | 0.00 | 0.00 | 0.00 | 63 | 1012.4 |
| 20260831191503 | 80 | 270 | 1.0 | 4.0 | 0.00 | 0.00 | 0.00 | 63 | 1012.5 |
| 20260831191002 | 80 | 304 | 1.0 | 5.0 | 0.00 | 0.00 | 0.00 | 62 | 1012.6 |
| 20260831190503 | 80 | 223 | 2.0 | 5.0 | 0.00 | 0.00 | 0.00 | 60 | 1012.6 |
| 20260831190003 | 80 | 241 | 2.0 | 6.0 | 0.00 | 0.00 | 0.00 | 60 | 1012.5 |
| 20260831185503 | 80 | 273 | 1.0 | 6.0 | 0.00 | 0.00 | 0.00 | 66 | 1012.5 |
| 20260831185002 | 80 | 263 | 2.0 | 6.0 | 0.00 | 0.00 | 0.00 | 65 | 1012.4 |
| 20260831184503 | 80 | 236 | 1.0 | 5.0 | 0.00 | 0.00 | 0.00 | 66 | 1012.5 |
| 20260831184003 | 80 | 342 | 1.0 | 5.0 | 0.00 | 0.00 | 0.00 | 63 | 1012.4 |
| 20260831183503 | 80 | 234 | 1.0 | 4.0 | 0.00 | 0.00 | 0.00 | 64 | 1012.5 |
| 20260831183003 | 80 | 10 | 2.0 | 4.0 | 0.00 | 0.00 | 0.00 | 64 | 1012.4 |
| 20260831182503 | 80 | 359 | 1.0 | 4.0 | 0.00 | 0.00 | 0.00 | 64 | 1012.3 |
| 20260831182003 | 80 | 279 | 1.0 | 3.0 | 0.00 | 0.00 | 0.00 | 67 | 1012.3 |
| 20260831181503 | 79 | 299 | 1.0 | 3.0 | 0.00 | 0.00 | 0.00 | 64 | 1012.3 |
| 20260831181003 | 79 | 334 | 0.0 | 3.0 | 0.00 | 0.00 | 0.00 | 64 | 1012.4 |
| 20260831180502 | 79 | 336 | 1.0 | 3.0 | 0.00 | 0.00 | 0.00 | 65 | 1012.3 |
| 20260831180003 | 79 | 29 | 1.0 | 4.0 | 0.00 | 0.00 | 0.00 | 66 | 1012.3 |
| 20260831175503 | 79 | 29 | 1.0 | 4.0 | 0.00 | 0.00 | 0.00 | 67 | 1012.2 |
| 20260831175003 | 78 | 35 | 1.0 | 4.0 | 0.00 | 0.00 | 0.00 | 70 | 1012.3 |
| 20260831174503 | 78 | 36 | 1.0 | 4.0 | 0.00 | 0.00 | 0.00 | 70 | 1012.3 |
| 20260831174003 | 78 | 33 | 1.0 | 3.0 | 0.00 | 0.00 | 0.00 | 73 | 1012.5 |
| 20260831173503 | 77 | 3 | 0.0 | 2.0 | 0.00 | 0.00 | 0.00 | 73 | 1012.5 |
| 20260831173003 | 77 | 3 | 1.0 | 4.0 | 0.00 | 0.00 | 0.00 | 74 | 1012.5 |
| 20260831172503 | 77 | 343 | 2.0 | 4.0 | 0.00 | 0.00 | 0.00 | 75 | 1012.5 |
| 20260831172003 | 77 | 250 | 1.0 | 4.0 | 0.00 | 0.00 | 0.00 | 78 | 1012.6 |
| 20260831171503 | 76 | 324 | 1.0 | 4.0 | 0.00 | 0.00 | 0.00 | 78 | 1012.6 |
| 20260831171002 | 76 | 14 | 1.0 | 4.0 | 0.00 | 0.00 | 0.00 | 78 | 1012.6 |
| 20260831170504 | 76 | 360 | 1.0 | 4.0 | 0.00 | 0.00 | 0.00 | 79 | 1012.6 |
| 20260831170002 | 76 | 360 | 1.0 | 4.0 | 0.00 | 0.00 | 0.00 | 79 | 1012.6 |
| 20260831165503 | 76 | 314 | 1.0 | 4.0 | 0.00 | 0.00 | 0.00 | 79 | 1012.6 |
| 20260831165003 | 75 | 347 | 1.0 | 5.0 | 0.00 | 0.00 | 0.00 | 82 | 1012.7 |
| 20260831164503 | 75 | 223 | 0.0 | 5.0 | 0.00 | 0.00 | 0.00 | 83 | 1012.7 |
| 20260831164003 | 75 | 360 | 1.0 | 3.0 | 0.00 | 0.00 | 0.00 | 82 | 1012.5 |
| 20260831163503 | 75 | 21 | 0.0 | 3.0 | 0.00 | 0.00 | 0.00 | 84 | 1012.6 |
| 20260831163003 | 75 | 21 | 1.0 | 3.0 | 0.00 | 0.00 | 0.00 | 84 | 1012.6 |
| 20260831162503 | 74 | 15 | 1.0 | 4.0 | 0.00 | 0.00 | 0.00 | 84 | 1012.7 |
| 20260831162003 | 74 | 333 | 1.0 | 4.0 | 0.00 | 0.00 | 0.00 | 85 | 1012.7 |
| 20260831161503 | 74 | 0 | 1.0 | 3.0 | 0.00 | 0.00 | 0.00 | 87 | 1012.6 |
| 20260831161003 | 73 | 360 | 1.0 | 3.0 | 0.00 | 0.00 | 0.00 | 87 | 1012.6 |
| 20260831160502 | 73 | 360 | 1.0 | 4.0 | 0.00 | 0.00 | 0.00 | 87 | 1012.7 |
| 20260831160003 | 73 | 360 | 0.0 | 4.0 | 0.00 | 0.00 | 0.00 | 88 | 1012.7 |
| 20260831155502 | 73 | 9 | 1.0 | 5.0 | 0.00 | 0.00 | 0.00 | 88 | 1012.6 |
| 20260831155003 | 72 | 358 | 2.0 | 5.0 | 0.00 | 0.00 | 0.00 | 88 | 1012.5 |
| 20260831154502 | 72 | 331 | 1.0 | 4.0 | 0.00 | 0.00 | 0.00 | 89 | 1012.5 |
| 20260831154003 | 72 | 58 | 1.0 | 5.0 | 0.00 | 0.00 | 0.00 | 89 | 1012.4 |
| 20260831153503 | 72 | 17 | 2.0 | 5.0 | 0.00 | 0.00 | 0.00 | 90 | 1012.4 |
| 20260831153003 | 72 | 357 | 2.0 | 5.0 | 0.00 | 0.00 | 0.00 | 90 | 1012.4 |
| 20260831152503 | 71 | 333 | 1.0 | 4.0 | 0.00 | 0.00 | 0.00 | 92 | 1012.4 |
| 20260831152003 | 71 | 343 | 1.0 | 4.0 | 0.00 | 0.00 | 0.00 | 93 | 1012.3 |
| 20260831151503 | 70 | 340 | 2.0 | 4.0 | 0.00 | 0.00 | 0.00 | 94 | 1012.3 |
| 20260831151003 | 70 | 353 | 2.0 | 5.0 | 0.00 | 0.00 | 0.00 | 93 | 1012.2 |
| 20260831150503 | 70 | 328 | 2.0 | 5.0 | 0.00 | 0.00 | 0.00 | 94 | 1012.2 |
| 20260831150003 | 70 | 323 | 1.0 | 4.0 | 0.00 | 0.00 | 0.00 | 94 | 1012.2 |
| 20260831145503 | 70 | 338 | 1.0 | 4.0 | 0.00 | 0.00 | 0.00 | 95 | 1012.1 |
| 20260831145002 | 70 | 340 | 2.0 | 4.0 | 0.00 | 0.00 | 0.00 | 96 | 1012.2 |
| 20260831144503 | 70 | 258 | 2.0 | 5.0 | 0.00 | 0.00 | 0.00 | 96 | 1012.3 |
| 20260831144002 | 70 | 284 | 1.0 | 5.0 | 0.00 | 0.00 | 0.00 | 96 | 1012.3 |
| 20260831143503 | 70 | 322 | 2.0 | 6.0 | 0.00 | 0.00 | 0.00 | 97 | 1012.1 |
| 20260831143002 | 70 | 275 | 1.0 | 6.0 | 0.00 | 0.00 | 0.00 | 98 | 1012.1 |
| 20260831142503 | 70 | 254 | 1.0 | 5.0 | 0.00 | 0.00 | 0.00 | 98 | 1012.1 |
| 20260831142002 | 69 | 318 | 1.0 | 5.0 | 0.00 | 0.00 | 0.00 | 99 | 1012.3 |
| 20260831141503 | 69 | 305 | 1.0 | 4.0 | 0.00 | 0.00 | 0.00 | 99 | 1012.1 |
| 20260831141003 | 69 | 259 | 1.0 | 4.0 | 0.00 | 0.00 | 0.00 | 100 | 1011.8 |
| 20260831140503 | 69 | 258 | 1.0 | 4.0 | 0.00 | 0.00 | 0.00 | 100 | 1011.9 |
| 20260831140003 | 69 | 346 | 1.0 | 4.0 | 0.00 | 0.00 | 0.00 | 100 | 1011.8 |
| 20260831135503 | 69 | 360 | 0.0 | 3.0 | 0.00 | 0.00 | 0.00 | 100 | 1011.7 |
| 20260831135002 | 68 | 1 | 1.0 | 3.0 | 0.00 | 0.00 | 0.00 | 100 | 1011.8 |
| 20260831134503 | 68 | 296 | 0.0 | 5.0 | 0.00 | 0.00 | 0.00 | 100 | 1011.6 |
| 20260831134003 | 68 | 291 | 0.0 | 5.0 | 0.00 | 0.00 | 0.00 | 100 | 1011.6 |
| 20260831133503 | 68 | 210 | 1.0 | 4.0 | 0.00 | 0.00 | 0.00 | 100 | 1011.5 |
| 20260831133003 | 68 | 266 | 0.0 | 5.0 | 0.00 | 0.00 | 0.00 | 100 | 1011.3 |
| 20260831132503 | 67 | 339 | 0.0 | 5.0 | 0.00 | 0.00 | 0.00 | 100 | 1011.2 |
| 20260831132003 | 67 | 285 | 1.0 | 5.0 | 0.00 | 0.00 | 0.00 | 100 | 1011.1 |
| 20260831131502 | 67 | 278 | 0.0 | 4.0 | 0.00 | 0.00 | 0.00 | 100 | 1011.1 |
| 20260831131004 | 67 | 310 | 1.0 | 6.0 | 0.00 | 0.00 | 0.00 | 100 | 1010.9 |
| 20260831130502 | 66 | 310 | 1.0 | 6.0 | 0.00 | 0.00 | 0.00 | 100 | 1010.9 |
| 20260831130003 | 66 | 302 | 0.0 | 7.0 | 0.00 | 0.00 | 0.00 | 100 | 1011.0 |
| 20260831125502 | 66 | 218 | 0.0 | 7.0 | 0.00 | 0.00 | 0.00 | 100 | 1011.0 |
| 20260831125003 | 66 | 205 | 1.0 | 4.0 | 0.00 | 0.00 | 0.00 | 100 | 1010.9 |
| 20260831124503 | 66 | 267 | 1.0 | 4.0 | 0.00 | 0.00 | 0.00 | 100 | 1010.8 |
| 20260831124003 | 66 | 250 | 1.0 | 4.0 | 0.00 | 0.00 | 0.00 | 100 | 1010.5 |
| 20260831123503 | 66 | 170 | 0.0 | 1.0 | 0.00 | 0.00 | 0.00 | 100 | 1010.6 |
| 20260831123003 | 65 | 170 | 0.0 | 0.0 | 0.00 | 0.00 | 0.00 | 100 | 1010.5 |
| 20260831122503 | 65 | 170 | 0.0 | 0.0 | 0.00 | 0.00 | 0.00 | 100 | 1010.1 |
| 20260831122003 | 66 | 170 | 0.0 | 0.0 | 0.00 | 0.00 | 0.00 | 100 | 1010.1 |
| 20260831121503 | 66 | 170 | 0.0 | 1.0 | 0.00 | 0.00 | 0.00 | 100 | 1010.1 |
| 20260831121003 | 66 | 170 | 0.0 | 1.0 | 0.00 | 0.00 | 0.00 | 100 | 1010.0 |
| 20260831120503 | 66 | 170 | 0.0 | 1.0 | 0.00 | 0.00 | 0.00 | 100 | 1009.9 |
| 20260831120002 | 66 | 170 | 0.0 | 0.0 | 0.00 | 0.00 | 0.00 | 100 | 1009.8 |
| 20260831115503 | 66 | 170 | 0.0 | 0.0 | 0.00 | 0.00 | 0.00 | 100 | 1010.0 |
| 20260831115002 | 66 | 170 | 0.0 | 0.0 | 0.00 | 0.00 | 0.00 | 100 | 1009.9 |
| 20260831114503 | 67 | 170 | 0.0 | 0.0 | 0.00 | 0.00 | 0.00 | 100 | 1009.8 |
| 20260831114002 | 67 | 170 | 0.0 | 0.0 | 0.00 | 0.00 | 0.00 | 100 | 1009.8 |
| 20260831113503 | 67 | 170 | 0.0 | 0.0 | 0.00 | 0.00 | 0.00 | 100 | 1009.8 |
| 20260831113003 | 67 | 170 | 0.0 | 1.0 | 0.00 | 0.00 | 0.00 | 100 | 1009.7 |
| 20260831112503 | 67 | 170 | 0.0 | 1.0 | 0.00 | 0.00 | 0.00 | 100 | 1009.5 |
| 20260831112003 | 67 | 170 | 0.0 | 0.0 | 0.00 | 0.00 | 0.00 | 100 | 1009.5 |
| 20260831111503 | 68 | 170 | 0.0 | 1.0 | 0.00 | 0.00 | 0.00 | 100 | 1009.7 |
| 20260831111003 | 68 | 170 | 0.0 | 1.0 | 0.00 | 0.00 | 0.00 | 100 | 1009.4 |
| 20260831110502 | 68 | 170 | 0.0 | 0.0 | 0.00 | 0.00 | 0.00 | 100 | 1009.5 |
| 20260831110003 | 68 | 170 | 0.0 | 0.0 | 0.00 | 0.00 | 0.00 | 100 | 1009.2 |
| 20260831105502 | 68 | 170 | 0.0 | 1.0 | 0.00 | 0.00 | 0.00 | 100 | 1009.1 |
| 20260831105003 | 68 | 170 | 0.0 | 1.0 | 0.00 | 0.00 | 0.00 | 100 | 1008.9 |
| 20260831104503 | 68 | 170 | 0.0 | 1.0 | 0.00 | 0.00 | 0.00 | 100 | 1008.8 |
| 20260831104003 | 69 | 170 | 0.0 | 0.0 | 0.00 | 0.00 | 0.00 | 100 | 1008.8 |
| 20260831103503 | 69 | 170 | 0.0 | 0.0 | 0.00 | 0.00 | 0.00 | 100 | 1008.6 |
| 20260831103002 | 69 | 170 | 0.0 | 0.0 | 0.00 | 0.00 | 0.00 | 100 | 1008.6 |
| 20260831102503 | 69 | 170 | 0.0 | 0.0 | 0.00 | 0.00 | 0.00 | 100 | 1008.3 |
| 20260831102002 | 69 | 170 | 0.0 | 0.0 | 0.00 | 0.00 | 0.00 | 100 | 1008.3 |
| 20260831101503 | 69 | 170 | 0.0 | 0.0 | 0.00 | 0.00 | 0.00 | 100 | 1008.4 |
| 20260831101003 | 69 | 170 | 0.0 | 0.0 | 0.00 | 0.00 | 0.00 | 100 | 1008.4 |
| 20260831100503 | 70 | 170 | 0.0 | 1.0 | 0.00 | 0.00 | 0.00 | 100 | 1008.3 |
| 20260831100003 | 70 | 170 | 0.0 | 1.0 | 0.00 | 0.00 | 0.00 | 100 | 1008.3 |
| 20260831095503 | 70 | 170 | 0.0 | 1.0 | 0.00 | 0.00 | 0.00 | 100 | 1008.3 |
| 20260831095003 | 70 | 170 | 0.0 | 2.0 | 0.00 | 0.00 | 0.00 | 100 | 1008.3 |
| 20260831094503 | 70 | 170 | 0.0 | 2.0 | 0.00 | 0.00 | 0.00 | 100 | 1008.3 |
| 20260831094003 | 70 | 170 | 0.0 | 2.0 | 0.00 | 0.00 | 0.00 | 100 | 1008.3 |
| 20260831093503 | 70 | 170 | 0.0 | 3.0 | 0.00 | 0.00 | 0.00 | 100 | 1008.3 |
| 20260831093003 | 70 | 170 | 0.0 | 3.0 | 0.00 | 0.00 | 0.00 | 100 | 1008.3 |
| 20260831092503 | 70 | 330 | 0.0 | 1.0 | 0.00 | 0.00 | 0.00 | 100 | 1008.3 |
| 20260831092003 | 70 | 329 | 0.0 | 1.0 | 0.00 | 0.00 | 0.00 | 100 | 1008.2 |
| 20260831091503 | 70 | 329 | 0.0 | 1.0 | 0.00 | 0.00 | 0.00 | 100 | 1007.9 |
| 20260831091003 | 70 | 329 | 0.0 | 1.0 | 0.00 | 0.00 | 0.00 | 100 | 1007.9 |
| 20260831090503 | 70 | 329 | 0.0 | 1.0 | 0.00 | 0.00 | 0.00 | 100 | 1007.9 |
| 20260831090003 | 70 | 330 | 0.0 | 0.0 | 0.00 | 0.00 | 0.00 | 100 | 1007.9 |
| 20260831085502 | 70 | 330 | 0.0 | 1.0 | 0.00 | 0.00 | 0.00 | 100 | 1007.7 |
| 20260831085003 | 70 | 330 | 0.0 | 3.0 | 0.00 | 0.00 | 0.00 | 100 | 1007.6 |
| 20260831084503 | 70 | 330 | 0.0 | 3.0 | 0.00 | 0.00 | 0.00 | 100 | 1007.6 |
| 20260831084003 | 70 | 331 | 0.0 | 3.0 | 0.00 | 0.00 | 0.00 | 100 | 1007.6 |
| 20260831083503 | 69 | 338 | 1.0 | 4.0 | 0.00 | 0.00 | 0.00 | 100 | 1007.5 |
| 20260831083003 | 69 | 360 | 1.0 | 4.0 | 0.00 | 0.00 | 0.00 | 100 | 1007.3 |
| 20260831082503 | 69 | 327 | 0.0 | 2.0 | 0.00 | 0.00 | 0.00 | 100 | 1007.5 |
| 20260831082003 | 68 | 319 | 0.0 | 2.0 | 0.00 | 0.00 | 0.00 | 98 | 1007.3 |
| 20260831081503 | 68 | 241 | 0.0 | 1.0 | 0.00 | 0.00 | 0.00 | 99 | 1007.1 |
| 20260831081002 | 68 | 242 | 0.0 | 1.0 | 0.00 | 0.00 | 0.00 | 98 | 1007.0 |
| 20260831080503 | 68 | 242 | 0.0 | 2.0 | 0.00 | 0.00 | 0.00 | 98 | 1007.1 |
| 20260831080002 | 68 | 241 | 0.0 | 2.0 | 0.00 | 0.00 | 0.00 | 98 | 1007.0 |
| 20260831075503 | 68 | 242 | 0.0 | 0.0 | 0.00 | 0.00 | 0.00 | 98 | 1007.0 |
| 20260831075002 | 68 | 242 | 0.0 | 0.0 | 0.00 | 0.00 | 0.00 | 97 | 1007.0 |
| 20260831074503 | 69 | 242 | 0.0 | 0.0 | 0.00 | 0.00 | 0.00 | 97 | 1006.9 |
| 20260831074003 | 69 | 242 | 0.0 | 0.0 | 0.00 | 0.00 | 0.00 | 97 | 1006.9 |
| 20260831073503 | 69 | 242 | 0.0 | 1.0 | 0.00 | 0.00 | 0.00 | 96 | 1006.8 |
| 20260831073003 | 69 | 242 | 0.0 | 2.0 | 0.00 | 0.00 | 0.00 | 96 | 1006.9 |
| 20260831072503 | 69 | 241 | 0.0 | 2.0 | 0.00 | 0.00 | 0.00 | 96 | 1006.7 |
| 20260831072003 | 69 | 242 | 0.0 | 0.0 | 0.00 | 0.00 | 0.00 | 96 | 1006.7 |
| 20260831071503 | 69 | 242 | 0.0 | 0.0 | 0.00 | 0.00 | 0.00 | 96 | 1006.8 |
| 20260831071003 | 69 | 242 | 0.0 | 2.0 | 0.00 | 0.00 | 0.00 | 96 | 1006.7 |
| 20260831070503 | 70 | 241 | 0.0 | 2.0 | 0.00 | 0.00 | 0.00 | 96 | 1006.7 |
| 20260831070003 | 70 | 241 | 1.0 | 2.0 | 0.00 | 0.00 | 0.00 | 95 | 1006.7 |
| 20260831065503 | 70 | 241 | 0.0 | 2.0 | 0.00 | 0.00 | 0.00 | 95 | 1006.9 |
| 20260831065003 | 70 | 241 | 0.0 | 1.0 | 0.00 | 0.00 | 0.00 | 95 | 1006.5 |
| 20260831064502 | 70 | 242 | 0.0 | 0.0 | 0.00 | 0.00 | 0.00 | 94 | 1006.5 |
| 20260831064003 | 70 | 242 | 0.0 | 2.0 | 0.00 | 0.00 | 0.00 | 95 | 1006.6 |
| 20260831063503 | 70 | 242 | 0.0 | 2.0 | 0.00 | 0.00 | 0.00 | 95 | 1006.5 |
| 20260831063003 | 70 | 242 | 0.0 | 0.0 | 0.00 | 0.00 | 0.00 | 94 | 1006.7 |
| 20260831062502 | 70 | 242 | 0.0 | 0.0 | 0.00 | 0.00 | 0.00 | 94 | 1006.6 |
| 20260831062003 | 70 | 242 | 0.0 | 0.0 | 0.00 | 0.00 | 0.00 | 94 | 1006.6 |
| 20260831061503 | 70 | 242 | 0.0 | 0.0 | 0.00 | 0.00 | 0.00 | 94 | 1006.6 |
| 20260831061003 | 70 | 242 | 0.0 | 0.0 | 0.00 | 0.00 | 0.00 | 93 | 1006.6 |
| 20260831060503 | 70 | 242 | 0.0 | 0.0 | 0.00 | 0.00 | 0.00 | 93 | 1006.5 |
| 20260831060003 | 71 | 242 | 0.0 | 0.0 | 0.00 | 0.00 | 0.00 | 93 | 1006.5 |
| 20260831055503 | 71 | 242 | 0.0 | 0.0 | 0.00 | 0.00 | 0.00 | 92 | 1006.3 |
| 20260831055003 | 71 | 242 | 0.0 | 0.0 | 0.00 | 0.00 | 0.00 | 92 | 1006.3 |
| 20260831054503 | 71 | 242 | 0.0 | 0.0 | 0.00 | 0.00 | 0.00 | 91 | 1006.3 |
| 20260831054002 | 71 | 242 | 0.0 | 1.0 | 0.00 | 0.00 | 0.00 | 91 | 1006.2 |
| 20260831053503 | 72 | 242 | 0.0 | 3.0 | 0.00 | 0.00 | 0.00 | 91 | 1006.3 |
| 20260831053003 | 72 | 241 | 1.0 | 3.0 | 0.00 | 0.00 | 0.00 | 90 | 1006.4 |
| 20260831052503 | 72 | 257 | 0.0 | 1.0 | 0.00 | 0.00 | 0.00 | 90 | 1006.3 |
| 20260831052003 | 72 | 258 | 0.0 | 0.0 | 0.00 | 0.00 | 0.00 | 89 | 1006.3 |
| 20260831051503 | 73 | 258 | 0.0 | 1.0 | 0.00 | 0.00 | 0.00 | 89 | 1006.1 |
| 20260831051003 | 73 | 258 | 0.0 | 1.0 | 0.00 | 0.00 | 0.00 | 88 | 1006.1 |
| 20260831050503 | 73 | 257 | 0.0 | 1.0 | 0.00 | 0.00 | 0.00 | 88 | 1006.1 |
| 20260831050003 | 73 | 257 | 0.0 | 2.0 | 0.00 | 0.00 | 0.00 | 88 | 1006.2 |
| 20260831045503 | 73 | 257 | 0.0 | 2.0 | 0.00 | 0.00 | 0.00 | 87 | 1006.3 |
| 20260831045003 | 73 | 258 | 0.0 | 1.0 | 0.00 | 0.00 | 0.00 | 87 | 1006.3 |
| 20260831044503 | 74 | 257 | 0.0 | 1.0 | 0.00 | 0.00 | 0.00 | 87 | 1006.2 |
| 20260831044003 | 74 | 258 | 0.0 | 0.0 | 0.00 | 0.00 | 0.00 | 86 | 1006.1 |
| 20260831043502 | 74 | 258 | 0.0 | 0.0 | 0.00 | 0.00 | 0.00 | 86 | 1006.3 |
| 20260831043003 | 74 | 258 | 0.0 | 1.0 | 0.00 | 0.00 | 0.00 | 85 | 1006.3 |
| 20260831042502 | 75 | 258 | 0.0 | 1.0 | 0.00 | 0.00 | 0.00 | 84 | 1006.3 |
| 20260831042003 | 75 | 258 | 0.0 | 1.0 | 0.00 | 0.00 | 0.00 | 84 | 1006.3 |
| 20260831041502 | 75 | 258 | 0.0 | 1.0 | 0.00 | 0.00 | 0.00 | 83 | 1006.4 |
| 20260831041003 | 75 | 257 | 0.0 | 1.0 | 0.00 | 0.00 | 0.00 | 83 | 1006.3 |
| 20260831040502 | 75 | 258 | 0.0 | 0.0 | 0.00 | 0.00 | 0.00 | 82 | 1006.4 |
| 20260831040003 | 76 | 258 | 0.0 | 2.0 | 0.00 | 0.00 | 0.00 | 82 | 1006.4 |
| 20260831035503 | 76 | 257 | 0.0 | 2.0 | 0.00 | 0.00 | 0.00 | 81 | 1006.3 |
| 20260831035003 | 76 | 258 | 0.0 | 1.0 | 0.00 | 0.00 | 0.00 | 80 | 1006.3 |
| 20260831034503 | 76 | 258 | 0.0 | 2.0 | 0.00 | 0.00 | 0.00 | 80 | 1006.3 |
| 20260831034003 | 76 | 257 | 0.0 | 3.0 | 0.00 | 0.00 | 0.00 | 79 | 1006.2 |
| 20260831033503 | 76 | 257 | 0.0 | 3.0 | 0.00 | 0.00 | 0.00 | 79 | 1006.3 |
| 20260831033003 | 77 | 226 | 0.0 | 5.0 | 0.00 | 0.00 | 0.00 | 79 | 1006.3 |
| 20260831032503 | 77 | 226 | 1.0 | 5.0 | 0.00 | 0.00 | 0.00 | 79 | 1006.1 |
| 20260831032003 | 77 | 228 | 1.0 | 4.0 | 0.00 | 0.00 | 0.00 | 79 | 1006.2 |
| 20260831031503 | 77 | 222 | 0.0 | 4.0 | 0.00 | 0.00 | 0.00 | 78 | 1006.2 |
| 20260831031003 | 77 | 222 | 0.0 | 2.0 | 0.00 | 0.00 | 0.00 | 78 | 1006.1 |
| 20260831030503 | 77 | 222 | 0.0 | 1.0 | 0.00 | 0.00 | 0.00 | 78 | 1006.1 |
| 20260831030002 | 78 | 222 | 0.0 | 1.0 | 0.00 | 0.00 | 0.00 | 77 | 1006.0 |
| 20260831025503 | 78 | 222 | 0.0 | 0.0 | 0.00 | 0.00 | 0.00 | 76 | 1005.9 |
| 20260831025002 | 78 | 222 | 0.0 | 0.0 | 0.00 | 0.00 | 0.00 | 76 | 1005.8 |
| 20260831024503 | 78 | 222 | 0.0 | 1.0 | 0.00 | 0.00 | 0.00 | 76 | 1006.0 |
| 20260831024003 | 78 | 221 | 0.0 | 1.0 | 0.00 | 0.00 | 0.00 | 76 | 1005.8 |
| 20260831023503 | 79 | 222 | 0.0 | 2.0 | 0.00 | 0.00 | 0.00 | 76 | 1005.8 |
| 20260831023003 | 79 | 221 | 0.0 | 3.0 | 0.00 | 0.00 | 0.00 | 76 | 1005.7 |
| 20260831022503 | 79 | 221 | 1.0 | 3.0 | 0.00 | 0.00 | 0.00 | 75 | 1005.6 |
| 20260831022003 | 79 | 221 | 0.0 | 3.0 | 0.00 | 0.00 | 0.00 | 76 | 1005.5 |
| 20260831021503 | 79 | 221 | 1.0 | 4.0 | 0.00 | 0.00 | 0.00 | 76 | 1005.4 |
| 20260831021003 | 79 | 221 | 1.0 | 4.0 | 0.00 | 0.00 | 0.00 | 76 | 1005.2 |
| 20260831020502 | 79 | 220 | 0.0 | 2.0 | 0.00 | 0.00 | 0.00 | 77 | 1005.3 |
| 20260831020003 | 79 | 220 | 1.0 | 2.0 | 0.00 | 0.00 | 0.00 | 76 | 1005.2 |
| 20260831015502 | 80 | 220 | 0.0 | 1.0 | 0.00 | 0.00 | 0.00 | 76 | 1005.1 |
| 20260831015003 | 80 | 221 | 0.0 | 2.0 | 0.00 | 0.00 | 0.00 | 76 | 1005.0 |
| 20260831014502 | 81 | 221 | 0.0 | 2.0 | 0.00 | 0.00 | 0.00 | 75 | 1004.9 |
| 20260831014003 | 81 | 220 | 0.0 | 2.0 | 0.00 | 0.00 | 0.00 | 76 | 1005.0 |
| 20260831013502 | 82 | 221 | 0.0 | 1.0 | 0.00 | 0.00 | 0.00 | 76 | 1004.9 |
| 20260831013003 | 82 | 220 | 0.0 | 2.0 | 0.00 | 0.00 | 0.00 | 77 | 1004.9 |
| 20260831012502 | 82 | 220 | 0.0 | 2.0 | 0.00 | 0.00 | 0.00 | 79 | 1004.9 |
| 20260831012003 | 83 | 220 | 0.0 | 1.0 | 0.00 | 0.00 | 0.00 | 81 | 1005.0 |
| 20260831011503 | 83 | 220 | 0.0 | 3.0 | 0.00 | 0.00 | 0.00 | 84 | 1004.9 |
| 20260831011003 | 84 | 220 | 0.0 | 3.0 | 0.00 | 0.00 | 0.00 | 84 | 1004.8 |
| 20260831010502 | 84 | 220 | 0.0 | 1.0 | 0.00 | 0.00 | 0.00 | 85 | 1004.9 |
| 20260831010003 | 84 | 221 | 0.0 | 2.0 | 0.00 | 0.00 | 0.00 | 84 | 1004.9 |
| 20260831005503 | 85 | 220 | 0.0 | 2.0 | 0.00 | 0.00 | 0.00 | 84 | 1005.0 |
| 20260831005003 | 85 | 221 | 0.0 | 0.0 | 0.00 | 0.00 | 0.00 | 83 | 1004.9 |
| 20260831004503 | 85 | 221 | 0.0 | 0.0 | 0.00 | 0.00 | 0.00 | 81 | 1004.9 |
| 20260831004003 | 85 | 221 | 0.0 | 0.0 | 0.00 | 0.00 | 0.00 | 80 | 1005.0 |
| 20260831003503 | 86 | 220 | 0.0 | 0.0 | 0.00 | 0.00 | 0.00 | 79 | 1005.0 |
| 20260831003003 | 86 | 220 | 0.0 | 0.0 | 0.00 | 0.00 | 0.00 | 77 | 1005.1 |
| 20260831002503 | 86 | 221 | 0.0 | 0.0 | 0.00 | 0.00 | 0.00 | 77 | 1005.2 |
| 20260831002002 | 87 | 221 | 0.0 | 0.0 | 0.00 | 0.00 | 0.00 | 76 | 1005.1 |
| 20260831001503 | 87 | 221 | 0.0 | 1.0 | 0.00 | 0.00 | 0.00 | 75 | 1005.1 |
| 20260831001003 | 87 | 220 | 0.0 | 1.0 | 0.00 | 0.00 | 0.00 | 75 | 1005.3 |
| 20260831000503 | 87 | 221 | 0.0 | 1.0 | 0.00 | 0.00 | 0.00 | 73 | 1005.1 |
| 20260831000003 | 87 | 220 | 0.0 | 1.0 | 0.00 | 0.00 | 0.00 | 72 | 1005.1 |
| 20260830235503 | 88 | 220 | 0.0 | 2.0 | 0.00 | 0.00 | 0.00 | 73 | 1005.2 |
| 20260830235003 | 88 | 220 | 0.0 | 2.0 | 0.00 | 0.00 | 0.00 | 73 | 1005.1 |
| 20260830234503 | 88 | 220 | 1.0 | 2.0 | 0.00 | 0.00 | 0.00 | 71 | 1005.1 |
| 20260830234003 | 88 | 220 | 1.0 | 2.0 | 0.00 | 0.00 | 0.00 | 70 | 1005.1 |
| 20260830233503 | 88 | 220 | 0.0 | 1.0 | 0.00 | 0.00 | 0.00 | 69 | 1004.9 |
| 20260830233003 | 88 | 220 | 0.0 | 0.0 | 0.00 | 0.00 | 0.00 | 68 | 1005.0 |
| 20260830232502 | 89 | 221 | 0.0 | 0.0 | 0.00 | 0.00 | 0.00 | 68 | 1004.9 |
| 20260830232003 | 89 | 221 | 0.0 | 0.0 | 0.00 | 0.00 | 0.00 | 67 | 1004.9 |
| 20260830231502 | 89 | 221 | 0.0 | 0.0 | 0.00 | 0.00 | 0.00 | 67 | 1004.8 |
| 20260830231003 | 89 | 221 | 0.0 | 0.0 | 0.00 | 0.00 | 0.00 | 69 | 1004.9 |
| 20260830230503 | 89 | 220 | 0.0 | 0.0 | 0.00 | 0.00 | 0.00 | 68 | 1004.8 |
| 20260830230003 | 89 | 221 | 0.0 | 1.0 | 0.00 | 0.00 | 0.00 | 66 | 1004.6 |
| 20260830225502 | 89 | 220 | 0.0 | 1.0 | 0.00 | 0.00 | 0.00 | 66 | 1004.8 |
| 20260830225003 | 90 | 220 | 0.0 | 1.0 | 0.00 | 0.00 | 0.00 | 66 | 1004.8 |
| 20260830224503 | 90 | 219 | 0.0 | 2.0 | 0.00 | 0.00 | 0.00 | 67 | 1004.7 |
| 20260830224003 | 90 | 219 | 0.0 | 3.0 | 0.00 | 0.00 | 0.00 | 66 | 1004.7 |
| 20260830223503 | 91 | 219 | 1.0 | 3.0 | 0.00 | 0.00 | 0.00 | 65 | 1004.7 |
| 20260830223003 | 91 | 306 | 0.0 | 3.0 | 0.00 | 0.00 | 0.00 | 64 | 1004.6 |
| 20260830222503 | 91 | 213 | 1.0 | 4.0 | 0.00 | 0.00 | 0.00 | 63 | 1004.6 |
| 20260830222003 | 92 | 216 | 1.0 | 6.0 | 0.00 | 0.00 | 0.00 | 62 | 1004.7 |
| 20260830221503 | 92 | 210 | 1.0 | 6.0 | 0.00 | 0.00 | 0.00 | 59 | 1004.6 |
| 20260830221003 | 93 | 229 | 2.0 | 4.0 | 0.00 | 0.00 | 0.00 | 58 | 1004.7 |